Location: Houhaj�rvi
(61.2833°N, 23.0000°E)
Time: 07:31:24
(UTC+00:00)

Cosmos 1656 Rocket - Pass Details

Date: 27 February 2020
Orbit: 794 x 848 km, 71.1° (Epoch: 30 March)

Event Time Altitude Azimuth Distance (km) Brightness Sun altitude
Rises 18:21:19 0° 224° (SW) 3,349 7.2 -19.2°
Reaches altitude 10° 18:23:44 10° 225° (SW) 2,428 6.4 -19.5°
Maximum altitude 18:29:19 81° 313° (NW) 853 3.7 -20.1°
Drops below altitude 10° 18:35:01 10° 42° (NE) 2,473 5.9 -20.8°
Enters shadow 18:36:44 - 43° (NE) 3,124 6.5 -20.9°
